Probability
0 0 0 0 0 0 0 0 0 0 0 0 0 0 0 0 0 0 0 0 0 0 0 0 0 0 0 0 0 0 0 0 0 0 0 0 0 0
0 0 0 0 0 0 0 0 0 0 0 0 0 0 0 0 0 0 0 0 0 0 0 0 0 0 0 0 0 0 0 0 0 0 0 0 0 0
0 0 0 0 0 0 0 0 0 0 0 0 0 0 0 0 0 0 0 0 0 0 0 0 0 0 0 0 0 0 0 0 0 0 0 0 0 0
0 0 0 0 0 0 0 0 0 0 0 0 0 0 0 0 0 0 0 0 0 0 0 0 0 0 0 0 0 0 0 0 0 0 0 0 0 0
0 0 0 0 0 0 0 0 0 0 0 0 0 0 0 0 0 0 0 0 0 0 0 0 0 0 0 0 0 0 0 0 0 0 0 0 0 0
0 0 0 0 0 0 0 0 0 0 0 0 0 0 0 0 0 0 0 0 0 0 0 0 0 0 0 0 0 0 0 0 0 0 0 0 0 0
0 0 0 0 0 0 0 0 0 0 0 0 0 0 0 0 0 0 0 0 0 0 0 0 0 0 0 0 0 0 0 0 0 0 0 0 0 0
0 0 0 0 0 0 0 0 0 0 0 0 0 0 0 0 0 0 0 0 0 0 0 0 0 0 0 0 0 0 0 0 0 0 0 0 0 0
0 0 0 0 0 0 0 0 0 0 0 0 0 0 0 0 0 0 0 0 0 0 0 0 0 0 0 0 0 0 0 0 0 0 0 0 0 0
0 0 0 0 0 0 0 0 0 0 0 0 0 0 0 0 0 0 0 0 0 0 0 0 0 0 0 0 0 0 0 0 0 0 0 0 0 0
0 0 0 0 0 0 0 0 0 0 0 0 0 0 0 0 0 0 0 0 0 0 0 0 0 0 0 0 0 0 0 0 0 0 0 0 0 0
0 0 0 0 0 0 0 0 0 0 0 0 0 0 0 0 0 0 0 0 0 0 0 0 0 0 0 0 0 0 0 0 0 0 0 0 0 0
0 0 0 0 0 0 0 0 0 0 0 0 0 0 0 0 0 0 0 0 0 0 0 0 0 0 0 0 0 0 0 0 0 0 0 0 0 0
0 0 0 0 0 0 0 0 0 0 0 0 0 0 0 0 0 0 0 0 0 0 0 0 0 0 0 0 0 0 0 0 0 0 0 0 0 0
0 0 0 0 0 0 0 0 0 0 0 0 0 0 0 0 0 0 0 0 0 0 0 0 0 0 0 0 0 0 0 0 0 0 0 0 0 0
0 0 0 0 0 0 0 0 0 0 0 0 0 0 0 0 0 0 0 0 0 0 0 0 0 0 0 0 0 0 0 0 0 0 0 0 0 0
0 0 0 0 0 0 0 0 0 0 0 0 0 0 0 0 0 0 0 0 0 0 0 0 0 0 0 0 0 0 0 0 0 0 0 0 0 0
0 0 0 0 0 0 0 0 0 0 0 0 0 0 0 0 0 0 0 0 0 0 0 0 0 0 0 0 0 0 0 0 0 0 0 0 0 0
0 0 0 0 0 0 0 0 0 0 0 0 0 0 0 0 0 0 0 0 0 0 0 0 0 0 0 0 0 0 0 0 0 0 0 0 0 0
0 0 0 0 0 0 0 0 0 0 0 0 0 0 0 0 0 0 0 0 0 0 0 0 0 0 0 0 0 0 0 0 0 0 0 0 0 0
0 0 0 0 0 0 0 0 0 0 0 0 0 0 0 0 0 0 0 0 0 0 0 0 0 0 0 0 0 0 0 0 0 0 0 0 0 0
0 0 0 0 0 0 0 0 0 0 0 0 0 0 0 0 0 0 0 0 0 0 0 0 0 0 0 0 0 0 0 0 0 0 0 0 0 0
0 0 0 0 0 0 0 0 0 0 0 0 0 0 0 0 0 0 0 0 0 0 0 0 0 0 0 0 0 0 0 0 0 0 0 0 0 0
Wind_Speed
7 7 5 4 3 3 3 3 4 2 3 3 2 2 2 2 6 3 3 13 19 19 20 20 20 20 21 21 22 22 22 23 23 23 24 24 24 25
7 8 6 4 4 3 2 2 2 3 3 3 3 3 3 4 9 4 5 17 18 19 20 20 20 21 22 22 22 22 23 23 24 24 25 25 25 25
8 8 6 5 3 2 2 1 1 2 4 3 2 2 3 5 6 5 6 6 8 18 21 21 21 21 22 22 22 22 23 23 24 24 25 25 25 26
8 7 6 4 3 2 2 2 2 3 4 5 3 3 5 6 6 6 7 7 6 17 21 21 21 21 21 21 22 22 23 24 25 25 26 26 26 27
8 6 5 4 3 2 2 2 2 3 4 4 4 3 4 5 5 6 7 7 9 13 18 19 20 20 21 22 23 24 25 25 25 26 26 26 27 27
8 6 4 3 2 3 3 4 4 4 4 4 5 5 5 5 4 5 7 5 8 9 13 14 16 20 22 24 25 26 26 26 26 26 26 26 26 27
7 5 3 1 2 3 4 4 4 4 4 4 5 5 5 4 5 5 9 8 8 8 7 6 7 8 11 18 22 24 25 26 26 26 26 26 27 27
6 4 2 1 1 3 6 7 6 5 4 4 4 6 7 6 6 7 8 10 7 3 5 8 7 10 9 8 19 26 26 27 27 26 26 26 27 27
5 3 2 1 2 2 6 9 9 12 12 7 7 7 8 8 8 9 9 10 11 7 8 13 8 11 10 12 24 26 27 27 27 26 25 25 25 25
4 3 1 1 3 5 5 5 5 6 8 6 7 8 8 8 9 9 9 8 8 8 7 10 10 11 11 9 20 26 27 26 25 24 24 25 25 25
2 1 1 3 8 10 5 4 5 6 10 14 16 15 18 19 16 7 5 7 10 8 4 6 6 7 9 10 12 20 21 23 25 26 26 26 26 25
1 1 3 6 9 10 4 3 5 6 6 7 8 11 10 12 15 6 4 6 7 7 3 4 5 6 9 5 6 7 11 20 26 27 26 26 26 16
1 1 3 9 10 11 9 3 8 9 3 4 6 7 6 6 5 5 5 6 8 9 6 5 6 4 6 9 7 7 9 10 11 15 20 25 25 19
1 2 4 10 11 11 8 11 14 10 3 5 6 6 6 7 7 7 7 8 10 13 13 10 9 9 10 13 12 9 7 9 10 12 11 17 20 22
2 6 8 10 9 7 10 13 9 3 4 5 7 7 6 7 8 8 8 8 10 12 12 12 12 11 11 12 12 12 12 11 10 9 8 8 9 10
3 4 6 8 7 8 8 6 4 4 5 5 7 8 8 7 7 6 8 9 10 10 7 9 11 11 12 13 13 15 13 10 9 9 10 11 10 10
1 1 2 3 4 4 4 4 4 4 5 5 7 8 8 8 8 6 6 7 8 10 13 8 6 9 13 14 14 15 14 13 12 10 10 13 12 10
4 2 3 3 4 5 6 6 6 5 5 6 7 7 8 8 9 8 7 8 10 11 12 11 10 11 8 10 17 15 13 13 12 11 11 14 15 10
2 2 3 4 4 5 5 5 6 6 5 6 7 7 7 8 9 9 9 9 10 11 11 10 9 10 13 15 9 12 12 13 13 13 11 12 15 12
2 3 4 4 5 5 5 6 6 7 6 6 7 7 7 8 9 9 9 10 11 12 12 10 8 9 11 14 15 15 14 13 12 13 13 12 13 17
3 3 4 4 5 5 5 6 6 7 7 7 7 8 7 8 9 9 10 15 14 12 13 13 11 17 13 10 12 13 12 12 14 14 14 13 14 12
4 4 5 5 5 5 6 6 6 7 7 7 7 7 7 8 10 12 11 12 11 12 14 13 12 11 9 12 14 15 17 16 15 20 20 18 12 9
4 5 5 5 5 5 5 6 8 8 7 7 8 8 8 9 10 11 12 12 12 13 13 13 11 9 10 11 13 14 18 18 14 13 13 16 19 22
Wind_Direction
122 115 106 96 88 87 103 126 148 204 263 272 267 236 229 260 315 308 281 305 308 307 305 301 299 297 295 293 292 290 289 288 287 285 283 281 279 278
111 107 94 90 88 83 93 100 128 169 237 259 254 256 268 290 300 307 289 306 308 305 300 299 298 296 293 292 291 290 289 287 285 283 281 279 278 278
104 104 98 96 99 100 102 125 157 169 234 265 262 273 280 281 290 286 279 276 283 299 300 298 296 294 293 293 291 290 288 286 284 282 281 280 279 278
106 105 109 114 121 136 158 190 202 203 222 260 268 271 266 271 273 280 291 292 283 296 299 298 298 296 295 293 291 290 288 287 285 283 281 279 277 277
110 112 118 125 142 170 197 220 231 232 220 242 265 255 264 271 278 279 280 281 285 292 297 297 296 295 294 294 294 293 291 288 285 282 279 277 276 274
103 103 112 136 175 206 223 229 234 242 239 247 262 263 262 264 266 281 293 280 286 290 288 289 290 294 294 294 293 291 289 287 284 281 278 276 273 272
99 98 102 120 226 226 230 229 225 235 245 253 266 272 273 279 280 280 294 294 280 272 274 271 277 278 282 286 289 287 285 284 282 281 279 277 275 273
107 100 95 88 335 315 297 286 264 251 248 242 260 272 279 277 281 286 292 300 297 266 277 286 279 282 280 272 283 286 286 286 285 284 282 280 277 275
109 110 103 68 13 303 296 296 294 292 288 281 278 276 280 280 281 283 281 282 285 287 292 290 281 280 279 280 287 288 289 289 288 286 284 281 278 276
115 122 143 264 285 282 258 260 262 272 281 280 260 265 268 271 267 280 289 290 282 277 270 281 285 280 282 276 283 284 286 287 288 287 287 286 284 281
123 155 227 264 293 303 294 269 272 273 291 295 296 298 302 305 305 302 299 300 297 293 260 262 278 286 284 274 272 279 284 288 290 290 288 286 283 281
134 274 302 301 300 307 296 275 281 279 279 293 302 303 298 294 300 291 272 283 291 293 258 259 282 306 299 267 254 266 277 283 285 286 286 286 285 283
185 252 274 303 309 313 322 310 295 307 312 308 300 296 294 288 286 274 255 255 273 273 271 276 279 270 269 290 283 267 268 275 280 281 284 285 283 280
246 256 269 303 321 330 330 315 317 331 332 306 299 297 298 298 296 288 274 258 252 262 271 271 271 274 279 285 288 285 276 273 275 278 276 281 282 279
268 304 319 331 341 338 323 326 338 336 306 302 298 295 288 282 290 292 288 277 270 263 263 257 257 266 268 273 278 285 293 290 274 268 269 266 266 269
318 334 346 347 344 332 331 331 317 298 301 297 298 297 298 293 292 294 300 307 303 293 254 240 246 253 266 269 273 279 279 276 279 273 274 275 268 258
15 42 355 341 336 328 319 310 305 309 307 299 297 300 301 301 299 300 291 296 289 295 303 298 251 244 250 261 270 271 274 275 273 276 279 281 273 260
16 0 335 327 320 317 315 313 308 300 296 295 293 291 294 297 299 298 290 290 291 292 293 299 305 302 284 253 235 256 269 274 279 278 275 280 281 268
17 323 307 301 296 293 290 291 291 290 289 286 284 286 288 290 292 295 296 294 292 291 290 290 291 295 301 305 278 231 257 280 285 284 277 274 279 279
305 291 287 287 287 286 286 287 289 293 289 284 283 282 283 285 289 290 291 291 294 296 296 292 282 284 288 293 295 290 273 270 281 286 287 282 275 276
290 282 277 278 280 279 279 280 280 283 283 283 282 281 281 283 285 287 289 293 296 295 296 296 288 291 288 286 287 290 290 275 275 282 288 288 289 286
280 280 280 276 277 276 277 279 281 281 282 281 281 282 282 281 284 288 290 292 292 291 290 291 291 293 291 294 296 298 301 303 297 291 282 273 278 282
275 279 279 278 274 273 272 274 277 280 279 279 280 281 283 284 285 285 286 287 289 292 296 299 301 296 294 293 295 297 300 304 306 307 299 290 283 274